STARLINK-11269 [DTC] (60995 NORAD) Tracking and Keplerian Element Data

This shows tracking and keplerian element data for the satellite.

Feedback or suggestion? Click here.




ElementValue
Catalog60995
NameSTARLINK-11269 [DTC]
Epoch Orbit603
Epoch Day286.91668981
Epoch Year2024
RAAN289.2939
Inclination53.1582
Eccentricity0.0001088
Argument of Perigee75.3376
Mean Anonmoly313.8375
Mean Motion15.69704252
Decay Rate0.00013731
L11 60995U 24158F 24286.91668981 .00013731 00000+0 11803-3 0 9999
L22 60995 53.1582 289.2939 0001088 75.3376 313.8375 15.69704252 6035



Live tracking and technical data element details for STARLINK-11269 [DTC] (NORAD 60995). STARLINK-11269 [DTC] can be tracked NOW for your location showing map with azimuth and elevation plus other details from your city location.







IsCatalogInMostPopularTable: catalog: 60995, numindb: 9
Update: records affected: 1



GetName: 60995 STARLINK-11269 [DTC]

Hit Count: updated at: Wed, 04 Dec 2024 17:49:57 GMT